Location: Fatehalanka
(16.3139°N, 80.8379°E)
Time: 15:29:11
(UTC+00:00)

Cosmos 2228 - Pass Details

Date: 14 May 2026
Orbit: 562 x 587 km, 82.5° (Epoch: 10 June)

Event Time Altitude Azimuth Distance (km) Brightness Sun altitude
Exits shadow 14:46:35 38° 22° (NNE) 879 3.8 -24.2°
Drops below altitude 10° 14:49:11 10° 11° (N) 1,860 5.7 -24.7°
Sets 14:51:22 0° 8° (N) 2,754 6.7 -25.2°
